DateTimeUTC,F1_A11,F1_S11,BsB_S11,BsG_S11,BsR_S11,BbsB_S11,BbsG_S11,BbsR_S11,BaB_A11,BaG_A11,BaR_A11,Tu_S11,T_S11,Uu_S11,U_S11,P_S11,T1_A11
2021-11-27T12:00:00Z,00000200,21000000,,,,,,,-000.05,-000.17,0000.07,19.2,26.1,,00.0,0639.6,30.9
2021-11-27T12:01:00Z,00000200,21000000,,,,,,,0000.33,0000.17,0000.09,19.2,26.1,,00.0,0639.6,30.9
2021-11-27T12:02:00Z,00000200,21000000,,,,,,,0000.02,0000.32,-000.18,19.2,26.1,,00.0,0639.6,30.9
2021-11-27T12:03:00Z,00000200,61000000,,,,,,,0000.15,0000.19,0000.54,19.3,26.1,,00.0,0639.6,30.9
2021-11-27T12:04:00Z,00000200,41000000,0000.23,0000.10,0000.40,-000.25,0000.15,0000.25,0000.23,-000.11,-000.09,19.7,26.1,,00.0,0640.5,31.0
2021-11-27T12:05:00Z,00000200,01000000,0001.03,0000.26,0000.34,-000.27,-000.11,0000.27,0000.25,0000.44,0000.11,19.8,26.1,,00.0,0640.5,31.0
2021-11-27T12:06:00Z,00000200,01000000,0001.53,0000.53,0000.29,-000.29,-000.05,0000.48,-000.34,-000.20,-000.01,19.8,26.1,,00.0,0640.5,31.0
2021-11-27T12:07:00Z,00000200,01000000,0001.65,0000.52,0000.39,0000.40,0000.29,0000.21,0000.33,0000.08,-000.02,19.8,26.1,,00.0,0640.5,31.0
2021-11-27T12:08:00Z,00000200,01000000,0000.76,0000.60,0000.40,0000.11,0000.30,0000.23,0000.30,-000.09,0000.03,19.7,26.1,,00.0,0640.4,30.9
2021-11-27T12:09:00Z,00000200,01000000,0000.79,0000.40,0000.27,0000.05,0000.06,-000.02,-000.01,0000.65,-000.10,19.6,26.0,,00.0,0640.4,30.9
2021-11-27T12:10:00Z,00000200,01000000,0000.32,0000.47,0000.35,0000.57,0000.20,0000.22,0000.40,0000.06,0000.40,19.5,26.0,,00.0,0640.4,30.9
2021-11-27T12:11:00Z,00000200,01000000,0000.52,0000.17,0000.49,-000.16,0000.18,0000.92,0000.26,0000.42,-000.04,19.5,26.0,,00.0,0640.4,30.9
2021-11-27T12:12:00Z,00000200,01000000,0001.09,0000.66,0000.17,0000.60,0000.27,0000.29,0000.12,0000.01,0000.44,19.5,26.0,,00.0,0640.4,30.9
2021-11-27T12:13:00Z,00000200,01000000,0001.17,0000.77,0000.63,0000.37,0000.10,0000.33,0000.03,-000.05,-000.04,19.6,26.0,,00.0,0640.4,30.9
2021-11-27T12:14:00Z,00000200,01000000,0000.79,0000.74,0000.37,0000.36,0000.12,0000.09,0000.33,0000.39,0000.30,19.7,26.0,,00.0,0640.4,30.9
2021-11-27T12:15:00Z,00000200,01000000,0001.25,0000.16,0000.42,0000.24,0000.07,0000.31,0000.21,0000.41,0000.24,19.7,26.0,,00.0,0640.4,30.9
2021-11-27T12:16:00Z,00000200,01000000,0000.83,0000.17,0000.50,0000.01,0000.60,0000.15,0000.50,0000.26,0000.11,19.7,26.0,,00.0,0640.4,31.0
2021-11-27T12:17:00Z,00000200,01000000,0000.33,0000.34,0000.13,0000.07,-000.17,0000.46,-000.13,-000.08,0000.04,19.8,26.0,,00.0,0640.4,30.9
2021-11-27T12:18:00Z,00000200,01000000,0001.00,0000.58,0000.67,-000.34,0000.23,0000.08,0000.33,0000.17,0000.22,19.7,26.1,,00.0,0640.4,31.0
2021-11-27T12:19:00Z,00000200,01000000,0000.74,0000.68,0000.14,0000.18,0000.23,-000.06,0000.16,0000.12,0000.10,19.8,26.1,,00.0,0640.3,31.0
2021-11-27T12:20:00Z,00000200,01000000,0001.40,0000.87,0000.38,0000.80,0000.37,0000.52,0000.26,0000.31,0000.24,19.7,26.1,,00.0,0640.2,31.0
2021-11-27T12:21:00Z,00000200,01000000,0000.44,0000.27,0000.52,0000.72,-000.07,0000.21,0000.18,0000.36,0000.08,19.7,26.1,,00.0,0640.1,31.0
2021-11-27T12:22:00Z,00000200,01000000,0000.64,0000.70,0000.15,-000.10,0000.07,0000.06,0000.27,0000.15,0000.18,19.6,26.0,,00.0,0640.1,30.9
2021-11-27T12:23:00Z,00000200,01000000,0004.02,0004.16,0004.17,0001.16,0000.83,0001.03,0014.80,0015.06,0015.05,19.5,26.0,,00.0,0639.0,30.9
2021-11-27T12:24:00Z,00000200,01000000,0000.36,0000.80,0000.50,0000.59,0000.28,0000.21,0000.62,0000.21,0000.20,19.5,26.0,,00.0,0638.5,30.9
2021-11-27T12:25:00Z,00000200,01000000,0000.84,0000.51,0000.47,-000.00,0000.09,0000.19,-000.05,0000.11,0000.23,19.4,25.9,,00.0,0638.5,30.9
2021-11-27T12:26:00Z,00000200,01000000,0001.19,0000.51,0000.50,0000.43,0000.32,0000.36,0000.58,0000.43,0000.19,19.4,25.9,,00.0,0638.5,30.9
2021-11-27T12:27:00Z,00000200,01000000,0001.63,0000.86,0000.52,0000.41,0000.24,0000.19,-000.01,-000.02,0000.11,19.4,25.9,,00.0,0638.5,30.9
2021-11-27T12:28:00Z,00000200,01000000,0000.87,0000.35,0000.64,0000.16,0000.19,0000.19,0000.63,0000.36,0000.44,19.4,25.9,,00.0,0638.5,30.9
2021-11-27T12:29:00Z,00000200,01000000,0001.17,0000.55,0000.14,0000.28,-000.03,0000.20,0000.11,0000.49,-000.00,19.5,26.0,,00.0,0638.5,30.9
2021-11-27T12:30:00Z,00000200,01000000,0001.12,0000.36,-000.07,-000.57,0000.35,0000.09,0000.26,0000.14,0000.16,19.5,26.0,,00.0,0638.5,31.0
2021-11-27T12:31:00Z,00000200,01000000,0001.23,0000.35,-000.04,0000.41,-000.27,0000.14,0000.04,0000.34,-000.07,19.6,26.0,,00.0,0638.5,31.0
2021-11-27T12:32:00Z,00000200,01000000,0000.71,0000.55,0000.52,0000.57,0000.22,0000.36,0000.47,-000.15,0000.34,19.6,26.0,,00.0,0638.5,31.0
2021-11-27T12:33:00Z,00000200,01000000,0001.08,0000.27,0000.62,0000.56,0000.15,0000.31,0000.06,0000.31,-000.17,19.7,26.1,,00.0,0638.5,31.0
2021-11-27T12:34:00Z,00000200,01000000,0001.17,0000.55,0000.41,-000.16,0000.25,0000.49,-000.06,-000.20,0000.15,19.7,26.1,,00.0,0638.5,31.0
2021-11-27T12:35:00Z,00000200,01000000,0000.57,0000.50,0000.25,-000.03,-000.03,0000.14,-000.20,-000.06,-000.06,19.7,26.1,,00.0,0638.5,31.0
2021-11-27T12:36:00Z,00000200,01000000,0001.24,0000.40,0000.35,0000.80,0000.48,-000.32,0000.59,0000.31,0000.19,19.7,26.1,,00.0,0638.5,31.0
2021-11-27T12:37:00Z,00000200,01000000,0001.28,0000.38,0000.36,0000.61,-000.05,0000.29,-000.18,0000.08,0000.29,19.6,26.1,,00.0,0638.5,30.9
2021-11-27T12:38:00Z,00000200,01000000,-000.05,0000.63,0000.38,0000.14,-000.14,0000.18,0000.32,0000.23,0000.12,19.5,26.0,,00.0,0638.5,30.9
2021-11-27T12:39:00Z,00000200,01000000,0000.30,0000.47,0000.09,0000.78,0000.24,-000.14,0000.28,0000.17,-000.24,19.5,26.0,,00.0,0638.5,30.9
2021-11-27T12:40:00Z,00000200,01000000,0001.49,0000.45,0000.51,0000.46,0000.15,0000.28,0000.20,0000.19,0000.44,19.4,25.9,,00.0,0638.5,30.9
2021-11-27T12:41:00Z,00000200,01000000,0001.00,0000.37,0000.43,-000.22,-000.03,-000.26,0000.19,-000.01,-000.08,19.4,25.9,,00.0,0638.6,30.9
2021-11-27T12:42:00Z,00000200,01000000,0001.08,0000.79,0000.12,0000.26,0000.30,0000.03,-000.01,0000.29,0000.27,19.4,25.9,,00.0,0638.6,30.9
2021-11-27T12:43:00Z,00000200,01000000,0000.71,0000.45,0000.25,-000.15,-000.04,0000.35,0000.18,-000.35,0000.01,19.4,25.9,,00.0,0638.6,30.9
2021-11-27T12:44:00Z,00000200,01000000,0001.14,0000.74,0000.29,0000.25,0000.31,0000.34,0000.32,0000.54,-000.05,19.4,25.9,,00.0,0638.6,30.9
2021-11-27T12:45:00Z,00000200,01000000,0000.56,0000.66,0000.23,0000.03,0000.02,0000.05,0000.12,0000.12,0000.12,19.4,25.9,,00.0,0638.6,30.9
2021-11-27T12:46:00Z,00000200,01000000,0000.58,0000.53,0000.09,0000.03,0000.00,0000.17,0000.17,0000.29,0000.23,19.3,25.9,,00.0,0638.5,30.9
2021-11-27T12:47:00Z,00000200,01000000,0000.26,0000.87,0000.25,-000.00,0000.36,0000.18,0000.15,0000.08,-000.27,19.3,25.8,,00.0,0638.5,30.9
2021-11-27T12:48:00Z,00000200,01000000,0001.61,0000.26,-000.04,0000.34,0000.07,0000.13,-000.05,0000.50,0000.50,19.2,25.8,,00.0,0638.6,30.9
2021-11-27T12:49:00Z,00000200,01000000,0000.85,0000.23,0000.25,0000.01,0000.09,0000.08,0000.43,-000.53,0000.04,19.1,25.8,,00.0,0638.6,30.9
2021-11-27T12:50:00Z,00000200,01000000,0000.77,0000.23,0000.15,-000.29,-000.06,0000.07,-000.23,0000.62,-000.01,19.0,25.7,,00.0,0638.6,30.8
2021-11-27T12:51:00Z,00000200,01000000,0000.78,0000.75,0000.22,-000.44,0000.35,-000.04,0000.60,0000.28,0000.05,19.0,25.7,,00.0,0638.5,30.8
2021-11-27T12:52:00Z,00000200,01000000,0001.43,0000.37,0000.24,0000.32,0000.33,0000.24,0000.22,0000.13,0000.32,18.9,25.6,,00.0,0638.5,30.8
2021-11-27T12:53:00Z,00000200,01000000,0000.90,0000.66,0000.32,0000.74,-000.03,0000.05,0000.28,-000.15,0000.12,18.9,25.6,,00.0,0638.5,30.8
2021-11-27T12:54:00Z,00000200,01000000,0001.07,0000.34,0000.29,0000.30,0000.01,0000.14,-000.09,0000.52,0000.09,18.8,25.6,,00.0,0638.5,30.8
2021-11-27T12:55:00Z,00000200,01000000,0000.56,0000.70,0000.59,0000.21,0000.23,0000.52,0000.34,0000.03,-000.02,18.7,25.5,,00.0,0638.5,30.8
2021-11-27T12:56:00Z,00000200,01000000,0001.10,0000.35,0000.45,0000.11,0000.29,0000.22,0000.42,0000.26,0000.56,18.7,25.5,,00.0,0638.6,30.8
2021-11-27T12:57:00Z,00000200,41000000,,,,,,,-000.26,-000.30,-000.49,18.7,25.5,,00.0,0638.5,30.8
2021-11-27T12:58:00Z,00000200,61000000,,,,,,,0000.03,0000.27,-000.15,18.4,25.6,,00.0,0637.7,30.9
2021-11-27T12:59:00Z,00000200,21000000,,,,,,,0000.05,-000.24,-000.09,18.4,25.7,,00.0,0637.7,30.9
